Regional Weather Roundup
Issued by NWS

Home | Current Version | Previous Version | Graphics & Text | Print | Product List | Glossary On
Versions: 1 2 3 4 5 6 7 8 9 10 11 12 13 14 15 16 17 18 19 20 21 22 23 24 25 26 27
000
ASUS45 KSLC 230010
RWRUT

UTAH REGIONAL WEATHER ROUNDUP
NATIONAL WEATHER SERVICE SALT LAKE CITY UT
600 PM MDT MON AUG 22 2016

UTZ001>011-023>025-230100-

NORTHERN UTAH

CITY           SKY/WX    TMP DP  RH WIND       PRES   REMARKS
BRIGHAM CITY     N/A     90  22   8 S10       29.90F
HILL AFB       SUNNY     87  29  12 VRB6      29.95F
LOGAN          SUNNY     88  30  12 N16G22    29.92R
OGDEN          SUNNY     89  29  11 W6        29.92F
PROVO AIRPORT  NOT AVBL
SALT LAKE CITY PTSUNNY   92  24   8 N10       29.90F
VERNAL         CLOUDY    77  36  22 W15       29.98F
WENDOVER       PTSUNNY   91  30  11 NW18G24   29.91F
HEBER CITY     MOSUNNY   81  32  17 W8        29.99S
WEST JORDAN    MOSUNNY   87  32  14 NW12      29.95S

$$

UTZ012>022-026-027-230100-

SOUTHERN/CENTRAL UTAH

CITY           SKY/WX    TMP DP  RH WIND       PRES   REMARKS
BLANDING       SUNNY     76  44  31 SW9       30.17S
BRYCE CANYON   LGT RAIN  59  45  59 S15       30.26R
CEDAR CITY     CLOUDY    74  42  31 SE12      30.08F
DELTA          PTSUNNY   88  28  11 W15G22    29.95R
MILFORD        CLOUDY    83  44  25 S18       29.99R
MOAB/CYNLANDS  SUNNY     87  40  19 W6        29.94F
PRICE          CLOUDY    80  28  15 NW10G25   30.04S
ST GEORGE      PTCLDY    86  48  26 S13       29.93F

$$

REGIONAL REPORTS     COLORADO/ARIZONA

CITY           SKY/WX    TMP DP  RH WIND       PRES   REMARKS
CRAIG, CO      CLOUDY    74  36  25 S9        30.07R
GRAND JUNCTION CLOUDY    84  36  18 S12       29.99R
RIFLE          LGT RAIN  69  51  52 SW14G20   30.10R
MONTROSE       CLOUDY    68  45  43 SE15      30.13R
CORTEZ         CLOUDY    72  46  39 NE10      30.14S
PAGE, AZ       CLOUDY    83  44  25 SW10G16   30.00S
GRAND CANYON   PTSUNNY   73  45  36 SW15G21   30.21S
KINGMAN        TSTM      68  54  60 SE31      30.01S
FLAGSTAFF      PTSUNNY   65  47  52 W9G18     30.23S

$$

REGIONAL REPORTS    NEVADA/IDAHO/WYOMING

CITY           SKY/WX    TMP DP  RH WIND       PRES   REMARKS
LAS VEGAS, NV  MOSUNNY   97  44  16 SE8       29.77F HX  93
ELY            CLOUDY    67  43  41 S16       30.13F
ELKO           SUNNY     87  19   8 NW12      29.98F
POCATELLO, ID  CLOUDY    82  20  10 SW28      29.95F
BURLEY         SUNNY     79  27  14 W12G18    29.93F
EVANSTON, WY   SUNNY     79  21  11 W20G28    30.11S
ROCK SPRINGS   CLOUDY    78  25  14 W17G26    30.05S

$$




USA.gov is the U.S. government's official web portal to all federal, state and local government web resources and services.